• En España
  • Lista de países
  • Para 7 días
  • Temperatura del agua
  • Mapa Satelital
  • El tiempo en el mapa
  • Informadores
  • user-avatar
    Iniciar sesión

    Tiempo cada hora Razgrad

    Hoy, 15 Noviembre, Jueves

    Tiempo Temperatura Precipitaciones Viento Presión Humedad
    00:00 +8°C° 0.4 mm 2 mps 746 mmHg 83%
    01:00 +8°C° 0.4 mm 2 mps 746 mmHg 85%
    02:00 +7°C° 0 mm 2 mps 746 mmHg 85%
    03:00 +7°C° 1.3 mm 2 mps 746 mmHg 86%
    04:00 +7°C° 1.3 mm 2 mps 746 mmHg 88%
    05:00 +5°C° 1.3 mm 3 mps 746 mmHg 89%
    06:00 +5°C° 0.4 mm 3 mps 746 mmHg 89%
    07:00 +5°C° 0.4 mm 3 mps 746 mmHg 88%
    08:00 +5°C° 0 mm 3 mps 746 mmHg 86%
    09:00 +7°C° 0 mm 3 mps 746 mmHg 81%
    10:00 +7°C° 0 mm 4 mps 747 mmHg 77%
    11:00 +7°C° 0 mm 4 mps 747 mmHg 72%
    12:00 +8°C° 0.2 mm 4 mps 747 mmHg 70%
    13:00 +8°C° 0.2 mm 4 mps 746 mmHg 68%
    14:00 +8°C° 0 mm 4 mps 746 mmHg 66%
    15:00 +8°C° 0.2 mm 4 mps 746 mmHg 68%
    16:00 +7°C° 0.2 mm 4 mps 746 mmHg 70%
    17:00 +7°C° 0.2 mm 4 mps 747 mmHg 73%
    18:00 +6°C° 0 mm 4 mps 747 mmHg 75%
    19:00 +6°C° 0 mm 4 mps 747 mmHg 77%
    20:00 +5°C° 0 mm 4 mps 747 mmHg 79%
    21:00 +5°C° 0 mm 4 mps 747 mmHg 80%
    22:00 +4°C° 0 mm 3 mps 748 mmHg 81%
    23:00 +4°C° 0 mm 3 mps 748 mmHg 81%

    Mañana, 16 Noviembre, Viernes

    Tiempo Temperatura Precipitaciones Viento Presión Humedad
    00:00 +3°C° 0 mm 3 mps 748 mmHg 83%
    01:00 +2°C° 0 mm 3 mps 748 mmHg 84%
    02:00 +3°C° 0 mm 2 mps 748 mmHg 86%
    03:00 +2°C° 0 mm 3 mps 748 mmHg 86%
    04:00 +1°C° 0 mm 3 mps 749 mmHg 86%
    05:00 +1°C° 0 mm 3 mps 749 mmHg 87%
    06:00 +1°C° 0 mm 3 mps 749 mmHg 85%
    07:00 +2°C° 0 mm 3 mps 749 mmHg 84%
    08:00 +2°C° 0 mm 3 mps 749 mmHg 82%
    09:00 +1°C° 0 mm 4 mps 750 mmHg 79%
    10:00 +1°C° 0 mm 4 mps 750 mmHg 76%
    11:00 +3°C° 0 mm 4 mps 750 mmHg 73%
    12:00 +3°C° 0 mm 4 mps 750 mmHg 70%
    13:00 +2°C° 0 mm 5 mps 750 mmHg 68%
    14:00 +2°C° 0 mm 5 mps 750 mmHg 66%
    15:00 +3°C° 0 mm 4 mps 750 mmHg 63%
    16:00 +1°C° 0 mm 4 mps 750 mmHg 61%
    17:00 +1°C° 0 mm 4 mps 750 mmHg 58%
    18:00 0°C° 0 mm 4 mps 751 mmHg 63%
    19:00 0°C° 0 mm 4 mps 751 mmHg 67%
    20:00 -1°C° 0 mm 4 mps 751 mmHg 71%
    21:00 -1°C° 0.1 mm 4 mps 751 mmHg 74%
    22:00 -1°C° 0.1 mm 4 mps 751 mmHg 77%
    23:00 -1°C° 0.1 mm 4 mps 751 mmHg 79%

    Pasado mañana, 17 Noviembre, Sábado

    Tiempo Temperatura Precipitaciones Viento Presión Humedad
    00:00 0°C° 0 mm 3 mps 751 mmHg 80%
    01:00 0°C° 0 mm 3 mps 751 mmHg 81%
    02:00 0°C° 0 mm 3 mps 751 mmHg 82%
    03:00 0°C° 0.1 mm 3 mps 751 mmHg 83%
    04:00 0°C° 0.1 mm 3 mps 751 mmHg 84%
    05:00 0°C° 0.1 mm 3 mps 751 mmHg 85%
    06:00 0°C° 0.3 mm 3 mps 751 mmHg 86%
    07:00 0°C° 0.3 mm 3 mps 751 mmHg 87%
    08:00 0°C° 0.3 mm 3 mps 751 mmHg 88%
    09:00 0°C° 0.4 mm 3 mps 751 mmHg 87%
    10:00 -1°C° 0.4 mm 4 mps 751 mmHg 87%
    11:00 -1°C° 0.4 mm 4 mps 751 mmHg 87%
    12:00 -1°C° 0.4 mm 4 mps 751 mmHg 87%
    13:00 -1°C° 0.4 mm 4 mps 750 mmHg 88%
    14:00 +1°C° 0.4 mm 3 mps 750 mmHg 89%
    15:00 0°C° 0.4 mm 3 mps 750 mmHg 89%
    16:00 0°C° 0.4 mm 3 mps 750 mmHg 90%
    17:00 0°C° 0.4 mm 3 mps 750 mmHg 91%
    18:00 0°C° 0.2 mm 3 mps 750 mmHg 91%
    19:00 0°C° 0.2 mm 3 mps 750 mmHg 91%
    20:00 0°C° 0.2 mm 3 mps 750 mmHg 91%
    21:00 0°C° 0.1 mm 3 mps 750 mmHg 91%
    22:00 0°C° 0.1 mm 3 mps 750 mmHg 91%
    23:00 0°C° 0.1 mm 3 mps 750 mmHg 92%

    18 Noviembre, Domingo

    Tiempo Temperatura Precipitaciones Viento Presión Humedad
    00:00 0°C° 0.2 mm 3 mps 750 mmHg 91%
    01:00 0°C° 0.2 mm 3 mps 750 mmHg 91%
    02:00 0°C° 0.2 mm 3 mps 750 mmHg 91%
    03:00 0°C° 0.1 mm 3 mps 749 mmHg 91%
    04:00 0°C° 0.1 mm 3 mps 749 mmHg 91%
    05:00 -1°C° 0.1 mm 2 mps 749 mmHg 91%
    06:00 -1°C° 0.1 mm 2 mps 749 mmHg 91%
    07:00 +1°C° 0.1 mm 2 mps 749 mmHg 91%
    08:00 +1°C° 0.1 mm 2 mps 749 mmHg 91%
    09:00 +1°C° 0 mm 2 mps 748 mmHg 90%
    10:00 +2°C° 0 mm 2 mps 748 mmHg 89%
    11:00 +2°C° 0 mm 2 mps 748 mmHg 88%
    12:00 +4°C° 0 mm 1 mps 747 mmHg 87%
    13:00 +4°C° 0 mm 1 mps 747 mmHg 86%
    14:00 +4°C° 0 mm 1 mps 746 mmHg 85%
    15:00 +4°C° 0 mm 1 mps 746 mmHg 87%
    16:00 +4°C° 0 mm 1 mps 745 mmHg 88%
    17:00 +3°C° 0 mm 1 mps 745 mmHg 90%
    18:00 +3°C° 0 mm 1 mps 745 mmHg 91%
    19:00 +3°C° 0 mm 1 mps 744 mmHg 91%
    20:00 +3°C° 0 mm 1 mps 744 mmHg 92%
    21:00 +3°C° 0 mm 1 mps 744 mmHg 91%
    22:00 +3°C° 0 mm 1 mps 743 mmHg 90%
    23:00 +3°C° 0 mm 1 mps 743 mmHg 89%

    19 Noviembre, Lunes

    Tiempo Temperatura Precipitaciones Viento Presión Humedad
    00:00 +4°C° 0.3 mm 1 mps 743 mmHg 90%
    01:00 +4°C° 0.3 mm 1 mps 742 mmHg 91%
    02:00 +4°C° 0.3 mm 1 mps 742 mmHg 91%
    03:00 +3°C° 0.6 mm 2 mps 741 mmHg 92%
    04:00 +3°C° 0.6 mm 2 mps 741 mmHg 93%
    05:00 +3°C° 0.6 mm 2 mps 741 mmHg 94%
    06:00 +3°C° 0.6 mm 2 mps 741 mmHg 94%
    07:00 +4°C° 0.6 mm 2 mps 741 mmHg 94%
    08:00 +4°C° 0.6 mm 2 mps 741 mmHg 94%
    09:00 +4°C° 0.4 mm 3 mps 741 mmHg 93%
    10:00 +4°C° 0.4 mm 3 mps 741 mmHg 92%
    11:00 +5°C° 0.4 mm 4 mps 741 mmHg 91%
    12:00 +6°C° 0.1 mm 4 mps 740 mmHg 89%
    13:00 +6°C° 0.1 mm 4 mps 740 mmHg 88%
    14:00 +7°C° 0.1 mm 4 mps 740 mmHg 86%
    15:00 +7°C° 0.1 mm 4 mps 740 mmHg 88%
    16:00 +7°C° 0.1 mm 4 mps 740 mmHg 90%
    17:00 +7°C° 0.1 mm 4 mps 740 mmHg 92%
    18:00 +8°C° 0.1 mm 3 mps 740 mmHg 92%
    19:00 +8°C° 0.1 mm 3 mps 740 mmHg 93%
    20:00 +8°C° 0.1 mm 3 mps 740 mmHg 94%
    21:00 +7°C° 0 mm 2 mps 740 mmHg 94%
    22:00 +7°C° 0 mm 2 mps 741 mmHg 95%
    23:00 +7°C° 0 mm 2 mps 741 mmHg 95%

    20 Noviembre, Martes

    Tiempo Temperatura Precipitaciones Viento Presión Humedad
    00:00 +7°C° 0 mm 2 mps 741 mmHg 95%
    01:00 +7°C° 0 mm 2 mps 741 mmHg 96%
    02:00 +8°C° 0 mm 1 mps 741 mmHg 96%
    03:00 +7°C° 0 mm 2 mps 741 mmHg 96%
    04:00 +7°C° 0 mm 2 mps 741 mmHg 96%
    05:00 +7°C° 0 mm 2 mps 741 mmHg 96%
    06:00 +7°C° 0 mm 2 mps 741 mmHg 96%
    07:00 +8°C° 0 mm 2 mps 741 mmHg 95%
    08:00 +8°C° 0 mm 2 mps 741 mmHg 95%
    09:00 +10°C° 0 mm 3 mps 741 mmHg 91%
    10:00 +11°C° 0 mm 4 mps 741 mmHg 86%
    11:00 +13°C° 0 mm 4 mps 741 mmHg 81%
    12:00 +13°C° 0 mm 4 mps 741 mmHg 80%
    13:00 +14°C° 0 mm 4 mps 740 mmHg 79%
    14:00 +14°C° 0 mm 4 mps 740 mmHg 78%
    15:00 +14°C° 0.2 mm 4 mps 740 mmHg 82%
    16:00 +13°C° 0.2 mm 3 mps 740 mmHg 87%
    17:00 +13°C° 0.2 mm 3 mps 740 mmHg 91%
    18:00 +13°C° 0.1 mm 3 mps 739 mmHg 91%
    19:00 +13°C° 0.1 mm 4 mps 739 mmHg 91%
    20:00 +13°C° 0.1 mm 4 mps 739 mmHg 91%
    21:00 +13°C° 0.2 mm 4 mps 739 mmHg 90%
    22:00 +14°C° 0.2 mm 5 mps 739 mmHg 89%
    23:00 +14°C° 0.2 mm 5 mps 738 mmHg 88%
    Mostrar más